Regional Weather Roundup
Issued by NWS

Home | Current Version | Previous Version | Text Only | Print | Product List | Glossary Off
Versions: 1 2 3 4 5 6 7 8 9 10 11 12 13 14 15 16 17 18 19 20 21 22 23 24 25 26 27

000
ASUS45 KCYS 281010
RWRWY

WYOMING REGIONAL WEATHER ROUNDUP
NATIONAL WEATHER SERVICE CHEYENNE WY
400 AM MDT SUN MAY 28 2017

NOTE:  "FAIR" INDICATES FEW OR NO CLOUDS BELOW 12,000 FEET
WITH NO SIGNIFICANT WEATHER AND/OR OBSTRUCTIONS TO VISIBILITY.

WYZ001-281100-
YELLOWSTONE NATIONAL PARK

CITY           SKY/WX    TMP DP  RH WIND       PRES   REMARKS
LK YELLOWSTONE   N/A     28  27  96 CALM      30.41S
W YELLOWSTONE  NOT AVBL

$$
WYZ002>013-054>058-071-098>099-281100-
NORTHERN WYOMING

CITY           SKY/WX    TMP DP  RH WIND       PRES   REMARKS
JACKSON        FAIR      34  32  93 N3        30.37S
CODY           FAIR      53  33  46 SW6       30.24S
GREYBULL       CLOUDY    53  36  52 S3        30.19R
WORLAND          N/A     44  38  79 S5        30.20R
SHERIDAN       FAIR      56  39  53 NW22      30.18R
BUFFALO        FAIR      56  33  42 N22G30    30.20R
GILLETTE       FAIR      46  39  76 W15       30.13R
HULETT         CLOUDY    52  39  62 W8        30.12S
NEWCASTLE      FAIR      41  37  87 N3        30.14R

$$
WYZ014>020-022>026-101>103-281100-
CENTRAL WYOMING

CITY           SKY/WX    TMP DP  RH WIND       PRES   REMARKS
BIG PINEY      FAIR      30  26  85 CALM      30.36S
PINEDALE       FAIR      28  28 100 NW5       30.37R WCI  23
DUBOIS         FAIR      36  30  80 W10       30.34F WCI  28
LANDER         FAIR      47  29  49 CALM      30.26S
RIVERTON       FAIR      44  35  70 W12       30.26S
CASPER         CLOUDY    42  36  79 W8        30.23S
DOUGLAS        FAIR      40  36  86 N6        30.21S

$$
WYZ021-027>030-104>119-281100-
SOUTHERN WYOMING

CITY           SKY/WX    TMP DP  RH WIND       PRES   REMARKS
EVANSTON       FAIR      41  30  65 CALM      30.34S
KEMMERER         N/A     34  30  86 N12       30.36R WCI  25
FORT BRIDGER   FAIR      46  30  53 W5        30.37S
ROCK SPRINGS   FAIR      41  28  60 SE3       30.33S
DIXON            N/A     35  29  78 E5        30.36S WCI  31
RAWLINS        FAIR      32  29  88 SE3       30.32S
SARATOGA       FAIR      32  32 100 SE7       30.34S WCI  26
LARAMIE        FAIR      29  26  89 SE6       30.30F WCI  23
CHEYENNE       FAIR      41  32  70 W12       30.24F
TORRINGTON     FAIR      41  38  89 W3        30.15S
PINE BLUFFS    FAIR      37  36  93 MISG      30.21F

$$




USA.gov is the U.S. government's official web portal to all federal, state and local government web resources and services.